Overview Statistics Trail Chart Weather Telemetry Raw packets
 

This is the latest recevied weather packets stored in our database for station/object KI5NXU. If no packets are shown the sender has not sent any weather packets the latest 10 day(s).

<< 62 63 64 65 66 67 68 >>
Time Temp. Humidity Pressure Rain* Wind** Luminosity Snow
1787935466 37.22° C 38% 1018.6 hPa 0 mm - 715 W/m² -
1787935162 36.67° C 40% 1018.4 hPa 0 mm - 726 W/m² -
1787934857 36.67° C 39% 1018.5 hPa 0 mm - 722 W/m² -
1787934556 36.67° C 39% 1018.5 hPa 0 mm - 686 W/m² -
1787934252 36.67° C 37% 1018.6 hPa 0 mm - 695 W/m² -
1787933951 35.56° C 38% 1018.6 hPa 0 mm - 717 W/m² -
1787933650 36.11° C 46% 1018.5 hPa 0 mm - 708 W/m² -
1787933346 35° C 40% 1018.4 hPa 0 mm - 680 W/m² -
1787933045 33.33° C 50% 1018.5 hPa 0 mm - 695 W/m² -
1787932744 32.78° C 54% 1018.4 hPa 0 mm - 674 W/m² -
1787932438 32.78° C 53% 1018.4 hPa 0 mm - 621 W/m² -
1787932134 32.78° C 55% 1018.4 hPa 0 mm - 609 W/m² -
1787931832 32.22° C 55% 1018.4 hPa 0 mm - 597 W/m² -
1787931532 31.67° C 58% 1018.4 hPa 0 mm - 547 W/m² -
1787931227 32.22° C 57% 1018.3 hPa 0 mm - 530 W/m² -
1787930926 31.67° C 57% 1018.3 hPa 0 mm - 517 W/m² -
1787930625 31.67° C 57% 1018.4 hPa 0 mm - 509 W/m² -
1787930320 31.11° C 57% 1018.4 hPa 0 mm - 500 W/m² -
1787930015 31.11° C 59% 1018.4 hPa 0 mm - 490 W/m² -
1787929713 30.56° C 59% 1018.3 hPa 0 mm - 451 W/m² -
1787929409 30° C 60% 1018.3 hPa 0 mm - 438 W/m² -
1787929106 30° C 61% 1018.5 hPa 0 mm - 380 W/m² -
1787928802 29.44° C 63% 1018.5 hPa 0 mm - 357 W/m² -
1787928501 28.89° C 63% 1018.5 hPa 0 mm - 343 W/m² -
1787928200 28.89° C 64% 1018.5 hPa 0 mm - 320 W/m² -

* Rain latest hour (hover to see other rain measurements)
** Current wind speed in m/s (hover to see current wind gust speed)